Regional Weather Roundup
Issued by NWS Sterling, VA

Home | Current Version | Previous Version | Text Only | Print | Product List | Glossary Off
Versions: 1 2 3 4 5 6 7 8 9 10 11 12 13 14 15 16 17 18 19 20 21 22 23 24 25 26 27 28 29 30 31 32 33 34 35 36 37 38 39 40 41 42 43 44 45 46 47 48 49 50

000
ASUS41 KLWX 231110
RWRLWX

REGIONAL WEATHER ROUNDUP
NATIONAL WEATHER SERVICE BALTIMORE MD/WASHINGTON DC
700 AM EDT SAT MAY 23 2015

Note: "FAIR" indicates few or no clouds below 12,000 feet
with no significant weather and/or obstructions to visibility.
 TC=TEMPERATURE CELSIUS

 * =Non NWS site. Station does not report precipitation (e.g. rain,
    snow, etc.), thunder, or fog.

DCZ001-MDZ009-015-VAZ040>042-051-053>054-231200-
WASHINGTON METRO

CITY           SKY/WX    TMP DP  RH WIND       PRES   REMARKS
WASHINGTON NAT PTSUNNY   55  33  43 N9        30.42R
DULLES         CLOUDY    51  29  42 NW7       30.42R
ANDREWS AFB    PTSUNNY   52  31  44 NW7       30.40R
FT BELVOIR     PTSUNNY   52  34  49 NW5       30.42R
QUANTICO       MOSUNNY   53  33  46 NW7       30.43R
LEESBURG*      PTSUNNY   50  36  57 CALM      30.43R
MANASSAS*      SUNNY     50  39  66 N5        30.42R
GAITHERSBURG*  MOSUNNY   41  34  75 CALM      30.45R

$$

MDZ006>007-011-014-231200-
BALTIMORE METRO

CITY           SKY/WX    TMP DP  RH WIND       PRES   REMARKS
BWI AIRPORT    PTSUNNY   49  35  58 CALM      30.41R
MD SCIENCE CTR   N/A     54  32  43 MISG      30.42R
MARTIN STATE   PTSUNNY   52  37  58 NW3       30.42R
ANNAPOLIS      MOSUNNY   55  35  47 W7        30.41R

$$

MDZ012-015-019>023-231200-
MARYLAND EASTERN SHORE

CITY           SKY/WX    TMP DP  RH WIND       PRES   REMARKS
OCEAN CITY     SUNNY     55  36  48 N7        30.37R
SALISBURY      SUNNY     54  36  50 N5        30.38R
EASTON*        SUNNY     55  43  62 N3        30.43R

$$

MDZ017>025-231200-
SOUTHERN MARYLAND

CITY           SKY/WX    TMP DP  RH WIND       PRES   REMARKS
PATUXENT RIVER MOSUNNY   57  31  37 NW8       30.39R
ST INIGOES     SUNNY     57  32  38 VRB3      30.39R
LEONARDTOWN*   NOT AVBL

$$

MDZ003>005-231200-
NORTH CENTRAL MARYLAND

CITY           SKY/WX    TMP DP  RH WIND       PRES   REMARKS
FREDERICK*     SUNNY     43  41  93 CALM      30.45R
HAGERSTOWN APT SUNNY     46  31  55 CALM      30.42R
WESTMINSTER*   MOSUNNY   48  25  40 MISG      30.40R

$$

MDZ501>502-231200-
WESTERN MARYLAND

CITY           SKY/WX    TMP DP  RH WIND       PRES   REMARKS
OAKLAND*       NOT AVBL
CUMBERLAND*    NOT AVBL

$$

VAZ025>031-231200-
SHENANDOAH VALLEY

CITY           SKY/WX    TMP DP  RH WIND       PRES   REMARKS
WINCHESTER*    SUNNY     41  32  70 W3        30.42R
FRONT ROYAL*   FAIR      45  37  76 CALM      30.42R
LURAY*         FAIR      46  39  76 CALM      30.42R
NEW MARKET*    FAIR      42  36  81 CALM      30.42R
STAUNTON*      SUNNY     48  36  63 CALM      30.44R
WAYNESBORO*    FAIR      46  40  80 CALM      30.43R

$$

WVZ021-048>050-054>055-231200-
EASTERN WEST VIRGINIA PANHANDLE

CITY           SKY/WX    TMP DP  RH WIND       PRES   REMARKS
MARTINSBURG    SUNNY     40  32  73 W3        30.42R
PETERSBURG*    SUNNY     42  39  89 CALM      30.45R

$$

VAZ036>039-050-231200-
CENTRAL FOOTHILLS

CITY           SKY/WX    TMP DP  RH WIND       PRES   REMARKS
CHARLOTTESVILL SUNNY     50  40  68 CALM      30.42R
CULPEPER*      PTSUNNY   47  35  64 N3        30.44R
ORANGE*        MOSUNNY   52  32  46 CALM      30.43R
GORDONSVILLE*  FAIR      47  39  72 CALM      30.42R
WARRENTON*     FAIR      49  41  74 NW3       30.41R

$$

VAZ055>057-231200-
NORTH AND CENTRAL PIEDMONT

CITY           SKY/WX    TMP DP  RH WIND       PRES   REMARKS
FREDERICKSBRG* MOSUNNY   55  35  46 NW3       30.42R
STAFFORD*      MOSUNNY   46  37  70 CALM      30.46R

$$

NCZ024-NYZ072-PAZ021-071-VAZ022-071-231200-
OTHER REGIONAL OBSERVATIONS

CITY           SKY/WX    TMP DP  RH WIND       PRES   REMARKS
NEW YORK CITY  SUNNY     49  27  42 VRB3      30.38R
PHILADELPHIA   MOSUNNY   52  27  38 N10       30.40R
PITTSBURGH     PTCLDY    39  33  79 CALM      30.41R
ROANOKE        CLEAR     51  45  79 CALM      30.41R
RICHMOND       MOSUNNY   56  41  57 N5        30.40R
RALEIGH        PTCLDY    51  48  89 CALM      30.37R

$$

ANZ530>537-231200-
MARINE OBSERVATIONS

STATION/POSITION TIME  TEMP    WIND        PRES
                       AIR SEA DIR/SP/G
                 (UTC) (F)     (DEG/KT/KT) (MB)
THOMAS PT LIGHT  1100   54 64  310/ 11/ 12 1030.3R
BALT KEY BRIDGE  1000   55     280/ 10/ 12 1028.2R
LEWISETTA        1000   60 68              1028.0R
SOLOMONS ISLAND  1000      67                N/A
PINEY POINT      1000           10/ 10/ 12   N/A

$$




USA.gov is the U.S. government's official web portal to all federal, state and local government web resources and services.